| time (UTC) | temp F | wind direction | speed MPH | gust MPH | rain 1hr in | rain 24hr in | rain mn in | humidity % | barometer mb |
| 20260504060241 | 53 | 162 | 0.0 | 0.0 | 0.00 | 0.00 | 0.00 | 52 | 1000.8 |
| 20260504050709 | 48 | 166 | 0.0 | 0.0 | 0.00 | 0.00 | 0.00 | 62 | 1001.9 |
| 20260504050206 | 49 | 166 | 0.0 | 0.0 | 0.00 | 0.00 | 0.00 | 62 | 1002.1 |
| 20260504045703 | 48 | 166 | 0.0 | 0.0 | 0.00 | 0.00 | 0.00 | 63 | 1002.0 |
| 20260504045203 | 48 | 166 | 0.0 | 0.0 | 0.00 | 0.00 | 0.00 | 62 | 1002.2 |
| 20260504044702 | 49 | 166 | 0.0 | 0.0 | 0.00 | 0.00 | 0.00 | 61 | 1002.3 |
| 20260504044159 | 49 | 166 | 0.0 | 0.0 | 0.00 | 0.00 | 0.00 | 60 | 1002.5 |
| 20260504043655 | 50 | 166 | 0.0 | 0.0 | 0.00 | 0.00 | 0.00 | 60 | 1002.6 |
| 20260504043152 | 50 | 166 | 0.0 | 0.0 | 0.00 | 0.00 | 0.00 | 59 | 1002.6 |
| 20260504042650 | 50 | 166 | 0.0 | 0.0 | 0.00 | 0.00 | 0.00 | 58 | 1002.7 |
| 20260504042146 | 51 | 166 | 0.0 | 0.0 | 0.00 | 0.00 | 0.00 | 57 | 1002.8 |
| 20260504041642 | 51 | 166 | 0.0 | 0.0 | 0.00 | 0.00 | 0.00 | 57 | 1002.7 |
| 20260504041138 | 51 | 166 | 0.0 | 0.0 | 0.00 | 0.00 | 0.00 | 57 | 1003.0 |
| 20260504040636 | 51 | 166 | 0.0 | 0.0 | 0.00 | 0.00 | 0.00 | 56 | 1003.1 |
| 20260504040132 | 50 | 166 | 0.0 | 0.0 | 0.00 | 0.00 | 0.00 | 57 | 1002.9 |
| 20260504035629 | 51 | 166 | 0.0 | 0.0 | 0.00 | 0.00 | 0.00 | 56 | 1003.1 |
| 20260504035125 | 51 | 166 | 0.0 | 0.0 | 0.00 | 0.00 | 0.00 | 55 | 1003.5 |
| 20260504034624 | 51 | 166 | 0.0 | 0.0 | 0.00 | 0.00 | 0.00 | 54 | 1003.4 |
| 20260504034120 | 52 | 166 | 0.0 | 0.0 | 0.00 | 0.00 | 0.00 | 54 | 1003.5 |
| 20260504033618 | 52 | 166 | 0.0 | 0.0 | 0.00 | 0.00 | 0.00 | 53 | 1003.6 |
| 20260504033115 | 52 | 166 | 0.0 | 0.0 | 0.00 | 0.00 | 0.00 | 52 | 1003.9 |
| 20260504032612 | 53 | 166 | 0.0 | 0.0 | 0.00 | 0.00 | 0.00 | 51 | 1003.9 |
| 20260504032109 | 53 | 166 | 0.0 | 0.0 | 0.00 | 0.00 | 0.00 | 50 | 1003.7 |
| 20260504031606 | 53 | 166 | 0.0 | 0.0 | 0.00 | 0.00 | 0.00 | 50 | 1003.6 |
| 20260504031102 | 54 | 166 | 0.0 | 0.0 | 0.00 | 0.00 | 0.00 | 48 | 1003.8 |
| 20260504030559 | 54 | 166 | 0.0 | 0.0 | 0.00 | 0.00 | 0.00 | 47 | 1003.8 |
| 20260504030055 | 55 | 166 | 0.0 | 0.0 | 0.00 | 0.00 | 0.00 | 47 | 1004.1 |
| 20260504025553 | 55 | 166 | 0.0 | 0.0 | 0.00 | 0.00 | 0.00 | 46 | 1003.9 |
| 20260504025049 | 56 | 166 | 0.0 | 0.0 | 0.00 | 0.00 | 0.00 | 44 | 1004.0 |
| 20260504024547 | 57 | 166 | 0.0 | 0.0 | 0.00 | 0.00 | 0.00 | 43 | 1003.9 |
| 20260504024043 | 57 | 165 | 0.0 | 0.0 | 0.00 | 0.00 | 0.00 | 42 | 1004.1 |
| 20260504023540 | 58 | 166 | 0.0 | 0.0 | 0.00 | 0.00 | 0.00 | 40 | 1004.1 |
| 20260504023036 | 59 | 166 | 0.0 | 0.0 | 0.00 | 0.00 | 0.00 | 39 | 1004.0 |
| 20260504022532 | 60 | 166 | 0.0 | 0.0 | 0.00 | 0.00 | 0.00 | 38 | 1004.1 |
| 20260504022028 | 60 | 163 | 0.0 | 0.0 | 0.00 | 0.00 | 0.00 | 38 | 1004.2 |
| 20260504021526 | 60 | 167 | 0.0 | 0.0 | 0.00 | 0.00 | 0.00 | 37 | 1004.2 |
| 20260504021023 | 61 | 168 | 0.0 | 0.0 | 0.00 | 0.00 | 0.00 | 36 | 1004.2 |
| 20260504020520 | 62 | 164 | 0.0 | 0.0 | 0.00 | 0.00 | 0.00 | 35 | 1004.1 |
| 20260504020016 | 62 | 167 | 0.0 | 0.0 | 0.00 | 0.00 | 0.00 | 35 | 1004.4 |
| 20260504015513 | 62 | 167 | 0.0 | 0.0 | 0.00 | 0.00 | 0.00 | 34 | 1004.0 |
| 20260504015009 | 62 | 170 | 0.0 | 0.0 | 0.00 | 0.00 | 0.00 | 35 | 1004.0 |
| 20260504014505 | 63 | 164 | 1.0 | 2.0 | 0.00 | 0.00 | 0.00 | 34 | 1004.2 |
| 20260504014002 | 63 | 168 | 0.0 | 0.0 | 0.00 | 0.00 | 0.00 | 33 | 1004.2 |
| 20260504013500 | 64 | 166 | 0.0 | 0.0 | 0.00 | 0.00 | 0.00 | 33 | 1004.1 |
| 20260504012955 | 64 | 132 | 0.0 | 2.0 | 0.00 | 0.00 | 0.00 | 33 | 1004.4 |
| 20260504012454 | 64 | 173 | 0.0 | 0.0 | 0.00 | 0.00 | 0.00 | 32 | 1004.3 |
| 20260504011952 | 65 | 155 | 0.0 | 0.0 | 0.00 | 0.00 | 0.00 | 31 | 1004.2 |
| 20260504011448 | 65 | 178 | 0.0 | 0.0 | 0.00 | 0.00 | 0.00 | 31 | 1004.4 |
| 20260504010944 | 66 | 156 | 0.0 | 0.0 | 0.00 | 0.00 | 0.00 | 30 | 1004.2 |
| 20260504010440 | 66 | 161 | 0.0 | 0.0 | 0.00 | 0.00 | 0.00 | 31 | 1004.3 |
| 20260504005936 | 66 | 117 | 1.0 | 2.0 | 0.00 | 0.00 | 0.00 | 29 | 1004.4 |
| 20260504005433 | 66 | 269 | 2.0 | 3.0 | 0.00 | 0.00 | 0.00 | 29 | 1004.4 |
| 20260504004930 | 67 | 173 | 0.0 | 0.0 | 0.00 | 0.00 | 0.00 | 29 | 1004.4 |
| 20260504004428 | 67 | 172 | 0.0 | 0.0 | 0.00 | 0.00 | 0.00 | 29 | 1004.6 |
| 20260504003925 | 68 | 151 | 0.0 | 0.0 | 0.00 | 0.00 | 0.00 | 29 | 1004.5 |
| 20260504003421 | 68 | 159 | 0.0 | 0.0 | 0.00 | 0.00 | 0.00 | 29 | 1004.4 |
| 20260504002918 | 68 | 177 | 1.0 | 2.0 | 0.00 | 0.00 | 0.00 | 28 | 1004.5 |
| 20260504002415 | 68 | 166 | 1.0 | 2.0 | 0.00 | 0.00 | 0.00 | 29 | 1004.5 |
| 20260504001913 | 68 | 175 | 0.0 | 0.0 | 0.00 | 0.00 | 0.00 | 29 | 1004.4 |
| 20260504001410 | 68 | 154 | 2.0 | 3.0 | 0.00 | 0.00 | 0.00 | 28 | 1004.4 |
| 20260504000906 | 68 | 184 | 2.0 | 2.0 | 0.00 | 0.00 | 0.00 | 28 | 1004.4 |
| 20260504000403 | 68 | 176 | 2.0 | 2.0 | 0.00 | 0.00 | 0.00 | 29 | 1004.7 |
| 20260503235901 | 69 | 87 | 2.0 | 2.0 | 0.00 | 0.00 | 0.00 | 28 | 1004.7 |
| 20260503235359 | 69 | 164 | 1.0 | 2.0 | 0.00 | 0.00 | 0.00 | 28 | 1004.5 |
| 20260503234856 | 69 | 10 | 3.0 | 7.0 | 0.00 | 0.00 | 0.00 | 28 | 1004.6 |
| 20260503234353 | 69 | 166 | 0.0 | 0.0 | 0.00 | 0.00 | 0.00 | 28 | 1004.6 |
| 20260503233851 | 69 | 166 | 0.0 | 0.0 | 0.00 | 0.00 | 0.00 | 28 | 1004.6 |
| 20260503233347 | 69 | 187 | 0.0 | 2.0 | 0.00 | 0.00 | 0.00 | 27 | 1004.5 |
| 20260503232843 | 69 | 146 | 3.0 | 3.0 | 0.00 | 0.00 | 0.00 | 27 | 1004.6 |
| 20260503232341 | 70 | 155 | 0.0 | 2.0 | 0.00 | 0.00 | 0.00 | 27 | 1004.8 |
| 20260503231839 | 71 | 207 | 4.0 | 7.0 | 0.00 | 0.00 | 0.00 | 26 | 1004.8 |
| 20260503231336 | 71 | 198 | 2.0 | 3.0 | 0.00 | 0.00 | 0.00 | 27 | 1004.8 |
| 20260503230832 | 71 | 204 | 0.0 | 2.0 | 0.00 | 0.00 | 0.00 | 26 | 1005.2 |
| 20260503230329 | 72 | 202 | 4.0 | 5.0 | 0.00 | 0.00 | 0.00 | 26 | 1004.9 |
| 20260503225826 | 72 | 275 | 2.0 | 2.0 | 0.00 | 0.00 | 0.00 | 27 | 1004.9 |
| 20260503225322 | 72 | 213 | 2.0 | 2.0 | 0.00 | 0.00 | 0.00 | 26 | 1005.2 |
| 20260503224818 | 72 | 254 | 2.0 | 3.0 | 0.00 | 0.00 | 0.00 | 27 | 1005.2 |
| 20260503224316 | 72 | 33 | 2.0 | 5.0 | 0.00 | 0.00 | 0.00 | 26 | 1005.0 |
| 20260503223814 | 72 | 44 | 6.0 | 9.0 | 0.00 | 0.00 | 0.00 | 24 | 1005.4 |
| 20260503223311 | 72 | 219 | 2.0 | 2.0 | 0.00 | 0.00 | 0.00 | 26 | 1005.0 |
| 20260503222806 | 72 | 62 | 5.0 | 7.0 | 0.00 | 0.00 | 0.00 | 24 | 1005.2 |
| 20260503222305 | 72 | 148 | 3.0 | 3.0 | 0.00 | 0.00 | 0.00 | 24 | 1005.2 |
| 20260503221803 | 72 | 195 | 1.0 | 2.0 | 0.00 | 0.00 | 0.00 | 24 | 1005.2 |
| 20260503221301 | 72 | 21 | 7.0 | 10.0 | 0.00 | 0.00 | 0.00 | 24 | 1005.3 |
| 20260503220757 | 72 | 223 | 2.0 | 3.0 | 0.00 | 0.00 | 0.00 | 25 | 1005.3 |
| 20260503220254 | 72 | 276 | 1.0 | 2.0 | 0.00 | 0.00 | 0.00 | 26 | 1005.4 |
| 20260503215751 | 72 | 37 | 4.0 | 9.0 | 0.00 | 0.00 | 0.00 | 25 | 1005.4 |
| 20260503215248 | 73 | 205 | 2.0 | 2.0 | 0.00 | 0.00 | 0.00 | 26 | 1005.4 |
| 20260503214746 | 73 | 195 | 2.0 | 2.0 | 0.00 | 0.00 | 0.00 | 27 | 1005.5 |
| 20260503214242 | 74 | 180 | 0.0 | 0.0 | 0.00 | 0.00 | 0.00 | 25 | 1005.4 |
| 20260503213740 | 73 | 311 | 7.0 | 10.0 | 0.00 | 0.00 | 0.00 | 25 | 1005.4 |
| 20260503213238 | 73 | 119 | 2.0 | 3.0 | 0.00 | 0.00 | 0.00 | 31 | 1005.7 |
| 20260503212734 | 73 | 73 | 2.0 | 2.0 | 0.00 | 0.00 | 0.00 | 25 | 1005.5 |
| 20260503212232 | 74 | 220 | 2.0 | 3.0 | 0.00 | 0.00 | 0.00 | 28 | 1005.6 |
| 20260503211729 | 73 | 219 | 2.0 | 2.0 | 0.00 | 0.00 | 0.00 | 27 | 1005.6 |
| 20260503211225 | 73 | 267 | 6.0 | 10.0 | 0.00 | 0.00 | 0.00 | 27 | 1005.5 |
| 20260503210721 | 73 | 281 | 1.0 | 3.0 | 0.00 | 0.00 | 0.00 | 28 | 1005.7 |
| 20260503210219 | 72 | 320 | 2.0 | 3.0 | 0.00 | 0.00 | 0.00 | 28 | 1006.0 |
| 20260503205714 | 72 | 208 | 2.0 | 2.0 | 0.00 | 0.00 | 0.00 | 30 | 1005.7 |
| 20260503205210 | 72 | 80 | 2.0 | 2.0 | 0.00 | 0.00 | 0.00 | 29 | 1005.7 |
| 20260503204707 | 72 | 330 | 6.0 | 9.0 | 0.00 | 0.00 | 0.00 | 28 | 1005.8 |
| 20260503204205 | 73 | 4 | 6.0 | 9.0 | 0.00 | 0.00 | 0.00 | 29 | 1005.7 |
| 20260503203701 | 73 | 159 | 2.0 | 3.0 | 0.00 | 0.00 | 0.00 | 30 | 1005.7 |
| 20260503203159 | 72 | 193 | 3.0 | 5.0 | 0.00 | 0.00 | 0.00 | 30 | 1005.9 |
| 20260503202656 | 72 | 213 | 2.0 | 2.0 | 0.00 | 0.00 | 0.00 | 31 | 1005.9 |
| 20260503202154 | 71 | 232 | 2.0 | 3.0 | 0.00 | 0.00 | 0.00 | 30 | 1005.9 |
| 20260503201652 | 72 | 327 | 11.0 | 12.0 | 0.00 | 0.00 | 0.00 | 29 | 1006.1 |
| 20260503201149 | 72 | 228 | 2.0 | 3.0 | 0.00 | 0.00 | 0.00 | 29 | 1006.0 |
| 20260503200645 | 72 | 281 | 6.0 | 9.0 | 0.00 | 0.00 | 0.00 | 28 | 1006.0 |
| 20260503200141 | 73 | 263 | 0.0 | 2.0 | 0.00 | 0.00 | 0.00 | 31 | 1006.3 |
| 20260503195638 | 72 | 165 | 5.0 | 7.0 | 0.00 | 0.00 | 0.00 | 29 | 1006.1 |
| 20260503195135 | 71 | 190 | 4.0 | 7.0 | 0.00 | 0.00 | 0.00 | 27 | 1006.5 |
| 20260503194632 | 73 | 124 | 5.0 | 9.0 | 0.00 | 0.00 | 0.00 | 28 | 1006.5 |
| 20260503194127 | 73 | 11 | 4.0 | 5.0 | 0.00 | 0.00 | 0.00 | 30 | 1006.5 |
| 20260503193625 | 73 | 224 | 3.0 | 5.0 | 0.00 | 0.00 | 0.00 | 29 | 1006.5 |
| 20260503193120 | 72 | 34 | 4.0 | 5.0 | 0.00 | 0.00 | 0.00 | 31 | 1006.6 |
| 20260503192616 | 72 | 332 | 6.0 | 9.0 | 0.00 | 0.00 | 0.00 | 28 | 1006.4 |
| 20260503192112 | 72 | 14 | 4.0 | 5.0 | 0.00 | 0.00 | 0.00 | 28 | 1006.5 |
| 20260503191604 | 72 | 244 | 6.0 | 7.0 | 0.00 | 0.00 | 0.00 | 25 | 1006.5 |
| 20260503191100 | 72 | 346 | 5.0 | 5.0 | 0.00 | 0.00 | 0.00 | 28 | 1006.5 |
| 20260503190557 | 72 | 7 | 5.0 | 9.0 | 0.00 | 0.00 | 0.00 | 28 | 1006.7 |
| 20260503190055 | 71 | 313 | 13.0 | 17.0 | 0.00 | 0.00 | 0.00 | 28 | 1006.3 |
| 20260503185551 | 72 | 16 | 3.0 | 5.0 | 0.00 | 0.00 | 0.00 | 29 | 1006.5 |
| 20260503185050 | 70 | 182 | 2.0 | 3.0 | 0.00 | 0.00 | 0.00 | 30 | 1006.4 |
| 20260503184546 | 70 | 178 | 1.0 | 2.0 | 0.00 | 0.00 | 0.00 | 33 | 1006.5 |
| 20260503184043 | 70 | 159 | 10.0 | 14.0 | 0.00 | 0.00 | 0.00 | 33 | 1006.7 |
| 20260503183540 | 71 | 323 | 8.0 | 9.0 | 0.00 | 0.00 | 0.00 | 33 | 1006.7 |
| 20260503183037 | 71 | 232 | 6.0 | 9.0 | 0.00 | 0.00 | 0.00 | 32 | 1006.7 |
| 20260503182536 | 71 | 33 | 7.0 | 9.0 | 0.00 | 0.00 | 0.00 | 31 | 1006.9 |
| 20260503182033 | 71 | 314 | 4.0 | 5.0 | 0.00 | 0.00 | 0.00 | 35 | 1006.7 |
| 20260503181529 | 70 | 347 | 6.0 | 9.0 | 0.00 | 0.00 | 0.00 | 33 | 1006.8 |
| 20260503181026 | 70 | 310 | 4.0 | 5.0 | 0.00 | 0.00 | 0.00 | 35 | 1006.7 |
| 20260503180523 | 70 | 132 | 6.0 | 7.0 | 0.00 | 0.00 | 0.00 | 34 | 1006.8 |
| 20260503180020 | 70 | 332 | 3.0 | 3.0 | 0.00 | 0.00 | 0.00 | 35 | 1007.1 |
| 20260503175518 | 70 | 334 | 6.0 | 9.0 | 0.00 | 0.00 | 0.00 | 35 | 1006.9 |
| 20260503175015 | 70 | 178 | 4.0 | 7.0 | 0.00 | 0.00 | 0.00 | 38 | 1006.5 |
| 20260503174513 | 70 | 213 | 2.0 | 3.0 | 0.00 | 0.00 | 0.00 | 36 | 1006.8 |
| 20260503174008 | 70 | 195 | 3.0 | 7.0 | 0.00 | 0.00 | 0.00 | 35 | 1006.9 |
| 20260503173503 | 71 | 19 | 7.0 | 12.0 | 0.00 | 0.00 | 0.00 | 34 | 1006.8 |
| 20260503173000 | 71 | 50 | 4.0 | 5.0 | 0.00 | 0.00 | 0.00 | 35 | 1006.9 |
| 20260503172458 | 70 | 165 | 3.0 | 5.0 | 0.00 | 0.00 | 0.00 | 38 | 1006.9 |
| 20260503171955 | 70 | 303 | 5.0 | 9.0 | 0.00 | 0.00 | 0.00 | 38 | 1006.8 |
| 20260503171451 | 70 | 347 | 3.0 | 5.0 | 0.00 | 0.00 | 0.00 | 39 | 1007.1 |
| 20260503170949 | 69 | 332 | 3.0 | 3.0 | 0.00 | 0.00 | 0.00 | 39 | 1006.9 |
| 20260503170444 | 69 | 39 | 6.0 | 7.0 | 0.00 | 0.00 | 0.00 | 39 | 1006.9 |
| 20260503150837 | 64 | 136 | 7.0 | 10.0 | 0.00 | 0.00 | 0.00 | 42 | 1006.8 |
| 20260503150333 | 64 | 165 | 3.0 | 5.0 | 0.00 | 0.00 | 0.00 | 43 | 1006.8 |
| 20260503140257 | 60 | 336 | 3.0 | 5.0 | 0.00 | 0.00 | 0.00 | 49 | 1006.5 |
| 20260503131227 | 56 | 47 | 4.0 | 7.0 | 0.00 | 0.00 | 0.00 | 51 | 1005.8 |
| 20260503130725 | 56 | 35 | 3.0 | 3.0 | 0.00 | 0.00 | 0.00 | 51 | 1005.8 |
| 20260503130222 | 56 | 254 | 2.0 | 3.0 | 0.00 | 0.00 | 0.00 | 50 | 1005.8 |
| 20260503120147 | 51 | 188 | 1.0 | 2.0 | 0.00 | 0.00 | 0.00 | 55 | 1005.3 |
| 20260503110615 | 51 | 159 | 0.0 | 0.0 | 0.00 | 0.00 | 0.00 | 54 | 1004.6 |
| 20260503110112 | 52 | 165 | 0.0 | 0.0 | 0.00 | 0.00 | 0.00 | 53 | 1004.3 |
| 20260503090502 | 55 | 176 | 4.0 | 7.0 | 0.00 | 0.00 | 0.00 | 47 | 1005.4 |
| 20260503081428 | 58 | 138 | 2.0 | 3.0 | 0.00 | 0.00 | 0.00 | 46 | 1005.5 |
| 20260503080925 | 58 | 163 | 0.0 | 0.0 | 0.00 | 0.00 | 0.00 | 46 | 1005.8 |
| 20260503080421 | 59 | 184 | 2.0 | 3.0 | 0.00 | 0.00 | 0.00 | 45 | 1005.9 |
| 20260503072857 | 59 | 178 | 1.0 | 2.0 | 0.00 | 0.00 | 0.00 | 47 | 1005.9 |
| 20260503072355 | 59 | 314 | 4.0 | 7.0 | 0.00 | 0.00 | 0.00 | 47 | 1006.0 |
| 20260503071851 | 59 | 186 | 2.0 | 3.0 | 0.00 | 0.00 | 0.00 | 48 | 1006.1 |
| 20260503071349 | 59 | 142 | 0.0 | 2.0 | 0.00 | 0.00 | 0.00 | 47 | 1006.1 |
| 20260503070844 | 59 | 177 | 2.0 | 2.0 | 0.00 | 0.00 | 0.00 | 47 | 1006.2 |
| 20260503070343 | 57 | 219 | 3.0 | 5.0 | 0.00 | 0.00 | 0.00 | 48 | 1006.5 |